When you browse on this site, cookies collect data to enhance your experience and personalize the content and advertising you see.
Visit our Privacy Policy to learn more. By continuing to use the site, you agree to this use of cookies and data.
  • In Hungary
  • List of Countries
  • For 7 days
  • Water Temperature
  • Weather Map
  • News
  • Weather Widgets
  • user-avatar
    Login

    Hourly Weather Cucaita

    Today, 9 December, Monday

    Time Temperature Precipitation Wind Pressure Humidity
    00:00 +9°C° 0 mm 0 mps 550 mmHg 98%
    01:00 +9°C° 0 mm 0 mps 550 mmHg 98%
    02:00 +9°C° 0 mm 0 mps 550 mmHg 97%
    03:00 +9°C° 0 mm 0 mps 549 mmHg 97%
    04:00 +9°C° 0 mm 0 mps 549 mmHg 97%
    05:00 +9°C° 0 mm 0 mps 550 mmHg 96%
    06:00 +11°C° 0 mm 1 mps 550 mmHg 95%
    07:00 +11°C° 0 mm 1 mps 551 mmHg 95%
    08:00 +13°C° 0 mm 1 mps 552 mmHg 85%
    09:00 +16°C° 0 mm 1 mps 553 mmHg 75%
    10:00 +19°C° 0 mm 1 mps 555 mmHg 65%
    11:00 +19°C° 0.2 mm 1 mps 554 mmHg 64%
    12:00 +20°C° 0.2 mm 1 mps 554 mmHg 63%
    13:00 +19°C° 0.2 mm 2 mps 553 mmHg 61%
    14:00 +20°C° 0.5 mm 1 mps 552 mmHg 66%
    15:00 +19°C° 0.5 mm 1 mps 552 mmHg 72%
    16:00 +18°C° 0.5 mm 1 mps 551 mmHg 77%
    17:00 +15°C° 0.4 mm 1 mps 550 mmHg 83%
    18:00 +14°C° 0.4 mm 1 mps 550 mmHg 90%
    19:00 +12°C° 0.4 mm 1 mps 549 mmHg 97%
    20:00 +12°C° 0.2 mm 1 mps 550 mmHg 96%
    21:00 +11°C° 0.2 mm 1 mps 550 mmHg 96%
    22:00 +11°C° 0.2 mm 1 mps 550 mmHg 96%
    23:00 +10°C° 0 mm 1 mps 550 mmHg 96%

    Tomorrow, 10 December, Tuesday

    Time Temperature Precipitation Wind Pressure Humidity
    00:00 +10°C° 0 mm 1 mps 549 mmHg 96%
    01:00 +9°C° 0 mm 1 mps 549 mmHg 96%
    02:00 +9°C° 0 mm 1 mps 548 mmHg 95%
    03:00 +9°C° 0 mm 1 mps 548 mmHg 95%
    04:00 +8°C° 0 mm 1 mps 548 mmHg 94%
    05:00 +9°C° 0 mm 1 mps 549 mmHg 91%
    06:00 +10°C° 0 mm 1 mps 550 mmHg 88%
    07:00 +11°C° 0 mm 1 mps 551 mmHg 85%
    08:00 +14°C° 0 mm 1 mps 552 mmHg 73%
    09:00 +16°C° 0 mm 1 mps 554 mmHg 61%
    10:00 +20°C° 0 mm 1 mps 555 mmHg 50%
    11:00 +21°C° 0 mm 1 mps 555 mmHg 49%
    12:00 +21°C° 0 mm 1 mps 554 mmHg 49%
    13:00 +22°C° 0 mm 1 mps 554 mmHg 49%
    14:00 +20°C° 0.4 mm 1 mps 553 mmHg 60%
    15:00 +19°C° 0.4 mm 1 mps 552 mmHg 70%
    16:00 +18°C° 0.4 mm 1 mps 550 mmHg 81%
    17:00 +15°C° 0.7 mm 1 mps 550 mmHg 86%
    18:00 +14°C° 0.7 mm 1 mps 550 mmHg 92%
    19:00 +12°C° 0.7 mm 1 mps 550 mmHg 97%
    20:00 +12°C° 0.4 mm 1 mps 550 mmHg 97%
    21:00 +12°C° 0.4 mm 1 mps 550 mmHg 97%
    22:00 +11°C° 0.4 mm 1 mps 551 mmHg 98%
    23:00 +10°C° 0.2 mm 0 mps 550 mmHg 97%

    Day after tomorrow, 11 December, Wednesday

    Time Temperature Precipitation Wind Pressure Humidity
    00:00 +10°C° 0.2 mm 0 mps 550 mmHg 97%
    01:00 +10°C° 0.2 mm 0 mps 550 mmHg 96%
    02:00 +10°C° 0 mm 0 mps 550 mmHg 96%
    03:00 +10°C° 0 mm 0 mps 550 mmHg 96%
    04:00 +10°C° 0 mm 0 mps 549 mmHg 96%
    05:00 +11°C° 0.1 mm 0 mps 550 mmHg 95%
    06:00 +11°C° 0.1 mm 0 mps 550 mmHg 94%
    07:00 +11°C° 0.1 mm 0 mps 551 mmHg 94%
    08:00 +12°C° 0.3 mm 0 mps 552 mmHg 89%
    09:00 +14°C° 0.3 mm 0 mps 553 mmHg 85%
    10:00 +16°C° 0.3 mm 1 mps 554 mmHg 80%
    11:00 +18°C° 1.3 mm 1 mps 553 mmHg 81%
    12:00 +18°C° 1.3 mm 1 mps 553 mmHg 83%
    13:00 +18°C° 1.3 mm 1 mps 552 mmHg 84%
    14:00 +16°C° 1.6 mm 1 mps 551 mmHg 86%
    15:00 +16°C° 1.6 mm 1 mps 551 mmHg 88%
    16:00 +15°C° 1.6 mm 1 mps 550 mmHg 91%
    17:00 +14°C° 0.4 mm 1 mps 550 mmHg 93%
    18:00 +13°C° 0.4 mm 1 mps 549 mmHg 96%
    19:00 +11°C° 0.4 mm 1 mps 549 mmHg 99%
    20:00 +11°C° 0 mm 1 mps 549 mmHg 98%
    21:00 +10°C° 0 mm 0 mps 550 mmHg 98%
    22:00 +10°C° 0 mm 0 mps 550 mmHg 97%
    23:00 +9°C° 0 mm 0 mps 549 mmHg 97%

    12 December, Thursday

    Time Temperature Precipitation Wind Pressure Humidity
    00:00 +9°C° 0 mm 0 mps 549 mmHg 96%
    01:00 +9°C° 0 mm 1 mps 548 mmHg 96%
    02:00 +9°C° 0 mm 1 mps 548 mmHg 96%
    03:00 +8°C° 0 mm 1 mps 548 mmHg 95%
    04:00 +8°C° 0 mm 1 mps 547 mmHg 95%
    05:00 +9°C° 0 mm 1 mps 548 mmHg 94%
    06:00 +9°C° 0 mm 1 mps 549 mmHg 94%
    07:00 +10°C° 0 mm 1 mps 549 mmHg 93%
    08:00 +12°C° 0 mm 1 mps 551 mmHg 84%
    09:00 +15°C° 0 mm 1 mps 552 mmHg 74%
    10:00 +18°C° 0 mm 1 mps 553 mmHg 65%
    11:00 +19°C° 0.1 mm 1 mps 553 mmHg 62%
    12:00 +19°C° 0.1 mm 1 mps 553 mmHg 59%
    13:00 +19°C° 0.1 mm 2 mps 553 mmHg 56%
    14:00 +18°C° 0.2 mm 2 mps 552 mmHg 62%
    15:00 +17°C° 0.2 mm 2 mps 551 mmHg 68%
    16:00 +16°C° 0.2 mm 2 mps 550 mmHg 74%
    17:00 +14°C° 0.1 mm 1 mps 549 mmHg 82%
    18:00 +13°C° 0.1 mm 1 mps 549 mmHg 90%
    19:00 +11°C° 0.1 mm 1 mps 548 mmHg 97%
    20:00 +10°C° 0 mm 1 mps 549 mmHg 97%
    21:00 +10°C° 0 mm 1 mps 549 mmHg 97%
    22:00 +9°C° 0 mm 0 mps 549 mmHg 97%
    23:00 +10°C° 0 mm 1 mps 549 mmHg 96%

    13 December, Friday

    Time Temperature Precipitation Wind Pressure Humidity
    00:00 +9°C° 0 mm 1 mps 549 mmHg 95%
    01:00 +9°C° 0 mm 1 mps 548 mmHg 94%
    02:00 +8°C° 0 mm 1 mps 548 mmHg 94%
    03:00 +8°C° 0 mm 1 mps 547 mmHg 94%
    04:00 +7°C° 0 mm 1 mps 546 mmHg 94%
    05:00 +8°C° 0 mm 1 mps 547 mmHg 91%
    06:00 +9°C° 0 mm 1 mps 548 mmHg 88%
    07:00 +9°C° 0 mm 1 mps 549 mmHg 85%
    08:00 +12°C° 0 mm 1 mps 551 mmHg 74%
    09:00 +14°C° 0 mm 0 mps 553 mmHg 62%
    10:00 +18°C° 0 mm 0 mps 554 mmHg 50%
    11:00 +20°C° 0 mm 1 mps 554 mmHg 50%
    12:00 +20°C° 0 mm 1 mps 553 mmHg 50%
    13:00 +21°C° 0 mm 1 mps 553 mmHg 49%
    14:00 +20°C° 0.3 mm 1 mps 552 mmHg 60%
    15:00 +18°C° 0.3 mm 1 mps 551 mmHg 70%
    16:00 +16°C° 0.3 mm 2 mps 550 mmHg 81%
    17:00 +14°C° 0.6 mm 1 mps 549 mmHg 86%
    18:00 +13°C° 0.6 mm 1 mps 549 mmHg 92%
    19:00 +10°C° 0.6 mm 0 mps 549 mmHg 98%
    20:00 +10°C° 0.4 mm 0 mps 549 mmHg 98%
    21:00 +10°C° 0.4 mm 0 mps 549 mmHg 98%
    22:00 +10°C° 0.4 mm 0 mps 550 mmHg 98%
    23:00 +10°C° 0 mm 0 mps 550 mmHg 97%

    14 December, Saturday

    Time Temperature Precipitation Wind Pressure Humidity
    00:00 +10°C° 0 mm 0 mps 549 mmHg 97%
    01:00 +9°C° 0 mm 0 mps 549 mmHg 97%
    02:00 +9°C° 0 mm 0 mps 549 mmHg 96%
    03:00 +9°C° 0 mm 0 mps 549 mmHg 96%
    04:00 +9°C° 0 mm 0 mps 548 mmHg 96%
    05:00 +10°C° 0 mm 0 mps 549 mmHg 95%
    06:00 +10°C° 0 mm 0 mps 550 mmHg 94%
    07:00 +10°C° 0 mm 0 mps 550 mmHg 93%
    08:00 +12°C° 0.1 mm 0 mps 552 mmHg 87%
    09:00 +14°C° 0.1 mm 0 mps 553 mmHg 80%
    10:00 +16°C° 0.1 mm 0 mps 554 mmHg 73%
    11:00 +18°C° 0.8 mm 1 mps 553 mmHg 76%
    12:00 +18°C° 0.8 mm 1 mps 552 mmHg 80%
    13:00 +18°C° 0.8 mm 1 mps 552 mmHg 83%
    14:00 +16°C° 1.2 mm 1 mps 551 mmHg 86%
    15:00 +16°C° 1.2 mm 1 mps 550 mmHg 88%
    16:00 +15°C° 1.2 mm 1 mps 550 mmHg 91%
    17:00 +13°C° 0.6 mm 0 mps 550 mmHg 93%
    18:00 +12°C° 0.6 mm 0 mps 550 mmHg 96%
    19:00 +11°C° 0.6 mm 0 mps 550 mmHg 98%
    20:00 +11°C° 0.2 mm 0 mps 550 mmHg 98%
    21:00 +10°C° 0.2 mm 0 mps 550 mmHg 98%
    22:00 +10°C° 0.2 mm 0 mps 550 mmHg 98%
    23:00 +10°C° 0.1 mm 0 mps 550 mmHg 98%
    Show more